0 GLOBALSTAR M001 1 25162U 98008A 25137.54424941 -.00000138 00000-0 -31461-3 0 9994 2 25162 52.0046 62.4105 0001131 167.3780 2.9488 12.38212907239911 0 GLOBALSTAR M004 1 25163U 98008B 25137.47821186 -.00000083 00000-0 11447-3 0 9999 2 25163 51.9974 147.8369 0003043 222.5576 293.4391 12.63395891257801 0 GLOBALSTAR M002 1 25164U 98008C 25137.44282007 -.00000073 00000-0 74990-4 0 9992 2 25164 52.0026 317.2910 0002229 96.4888 263.6185 11.61509941180496 0 GLOBALSTAR M003 1 25165U 98008D 25137.52986414 -.00000061 00000-0 30057-3 0 9997 2 25165 51.9996 253.4310 0007882 227.9648 214.5257 12.12076590229508 0 GLOBALSTAR M014 1 25306U 98023A 25137.51063112 -.00000051 00000-0 49268-3 0 9994 2 25306 51.9835 240.9903 0000558 275.2680 165.5197 11.65480515187594 0 GLOBALSTAR M006 1 25307U 98023B 25137.39911610 -.00000021 00000-0 11090-2 0 9994 2 25307 51.9945 292.5942 0003641 60.5955 338.6018 11.58175407213261 0 GLOBALSTAR M015 1 25308U 98023C 25137.45035068 -.00000080 00000-0 -15723-3 0 9990 2 25308 51.9853 29.5265 0013011 22.9034 148.3399 11.48859194190542 0 GLOBALSTAR M008 1 25309U 98023D 25137.50170152 -.00000036 00000-0 47361-3 0 9994 2 25309 51.9972 287.0197 0003400 111.6888 291.0778 12.36069151234050 0 GLOBALSTAR M023 1 25621U 99004A 25137.50356922 -.00000095 00000-0 51854-4 0 9990 2 25621 52.0077 146.8738 0009517 57.0545 108.8065 12.62503960211853 0 GLOBALSTAR M040 1 25622U 99004B 25137.46674074 -.00000095 00000-0 46136-4 0 9994 2 25622 51.9887 151.0952 0000836 327.1014 197.7638 12.62010230211377 0 GLOBALSTAR M036 1 25623U 99004C 25137.54230473 .00000023 00000-0 15352-2 0 9999 2 25623 51.9981 321.0965 0010894 358.3443 37.1342 11.86599588175341 0 GLOBALSTAR M038 1 25624U 99004D 25137.34970238 -.00000081 00000-0 11377-3 0 9997 2 25624 51.9944 160.3807 0001781 346.2131 27.2632 12.32527089198576 0 GLOBALSTAR M022 1 25649U 99012A 25137.09393970 -.00000058 00000-0 34892-3 0 9998 2 25649 52.0070 15.4265 0003149 104.5363 62.1056 12.02500106172719 0 GLOBALSTAR M041 1 25650U 99012B 25137.56389095 -.00000002 00000-0 10705-2 0 9990 2 25650 52.0020 254.6708 0001489 235.1068 124.9629 11.96677246174855 0 GLOBALSTAR M046 1 25651U 99012C 25137.50900023 -.00000037 00000-0 56698-3 0 9995 2 25651 52.0072 325.5531 0002197 169.2354 217.1914 12.09410357179958 0 GLOBALSTAR M037 1 25652U 99012D 25137.54085420 -.00000089 00000-0 82146-4 0 9990 2 25652 52.0008 277.3917 0002793 120.7017 317.6430 12.62444449207409 0 GLOBALSTAR M045 1 25676U 99019A 25137.41781128 -.00000074 00000-0 16969-3 0 9990 2 25676 51.9994 32.9675 0000858 92.4924 79.4579 12.27061685189612 0 GLOBALSTAR M019 1 25677U 99019B 25137.57712054 .00000009 00000-0 10262-2 0 9996 2 25677 51.9844 160.7256 0001386 259.0804 271.7515 12.13873736181619 0 GLOBALSTAR M044 1 25678U 99019C 25137.63830523 -.00000077 00000-0 96927-4 0 9996 2 25678 51.9946 108.0933 0006435 343.0499 187.6888 11.90250016167687 0 GLOBALSTAR M042 1 25679U 99019D 25137.49939304 -.00000070 00000-0 20832-3 0 9992 2 25679 51.9980 137.5856 0002907 238.3456 294.8696 12.22082736181509 0 GLOBALSTAR M025 1 25770U 99031A 25137.57290499 -.00000062 00000-0 16406-3 0 9995 2 25770 51.9809 230.1923 0001886 115.0422 257.7837 11.22557986478276 0 GLOBALSTAR M049 1 25771U 99031B 25137.60937117 .00000036 00000-0 34973-2 0 9993 2 25771 51.9875 263.3345 0002058 320.7437 39.3210 11.12113291114024 0 GLOBALSTAR M047 1 25772U 99031C 25137.50659863 -.00000049 00000-0 56426-3 0 9995 2 25772 51.9834 263.4678 0016682 208.0569 151.9338 11.31928117467634 0 GLOBALSTAR M052 1 25773U 99031D 25137.41753856 -.00000017 00000-0 16447-2 0 9996 2 25773 51.9902 12.8752 0003058 111.7635 59.3351 11.15059152475076 0 GLOBALSTAR M035 1 25851U 99037A 25137.47232679 -.00000098 00000-0 -13053-2 0 9990 2 25851 51.9912 123.4610 0014164 292.1945 245.6342 11.04538891 92866 0 GLOBALSTAR M032 1 25852U 99037B 25137.51544843 -.00000076 00000-0 -27970-3 0 9995 2 25852 51.9966 310.6800 0012856 114.9958 245.2178 11.19060397131356 0 GLOBALSTAR M051 1 25853U 99037C 25137.60028947 -.00000080 00000-0 -19573-3 0 9993 2 25853 51.9764 114.6771 0000419 166.3804 193.7017 11.42204796128898 0 GLOBALSTAR M030 1 25854U 99037D 25137.45084506 -.00000020 00000-0 11738-2 0 9997 2 25854 51.9883 283.1010 0002930 3.6321 356.4517 11.55109314146499 0 GLOBALSTAR M048 1 25872U 99041A 25137.46437441 -.00000056 00000-0 38201-3 0 9997 2 25872 51.9390 48.8507 0013298 129.3985 42.0633 11.33856619121493 0 GLOBALSTAR M026 1 25873U 99041B 25137.61221200 -.00000020 00000-0 16418-2 0 9995 2 25873 52.0008 241.4336 0002275 204.7541 168.3170 11.06837636145102 0 GLOBALSTAR M043 1 25874U 99041C 25137.47668259 -.00000063 00000-0 14338-3 0 9996 2 25874 51.9359 155.2453 0013693 259.5382 252.0310 11.25694442119418 0 GLOBALSTAR M028 1 25875U 99041D 25137.38223790 -.00000043 00000-0 37269-3 0 9990 2 25875 51.9628 284.9209 0063052 5.2850 354.8665 12.50582670186323 0 GLOBALSTAR M024 1 25883U 99043A 25137.12052223 -.00000015 00000-0 17592-2 0 9999 2 25883 52.0007 90.7161 0001751 40.6401 332.0201 11.10167188111418 0 GLOBALSTAR M027 1 25884U 99043B 25137.35971007 -.00000076 00000-0 -47462-3 0 9993 2 25884 52.0173 167.2898 0021484 300.9538 58.9144 11.04372380137837 0 GLOBALSTAR M054 1 25885U 99043C 25137.40629759 .00000069 00000-0 35717-2 0 9993 2 25885 52.0150 299.6523 0006642 119.6942 258.1044 11.39215123115547 0 GLOBALSTAR M053 1 25886U 99043D 25137.56804336 -.00000048 00000-0 60883-3 0 9998 2 25886 51.9980 244.6587 0002911 39.3052 333.6696 11.27665183115995 0 GLOBALSTAR M058 1 25907U 99049A 25137.48141280 -.00000016 00000-0 92631-3 0 9992 2 25907 51.9917 191.1686 0002190 203.2697 156.8038 11.93199564537879 0 GLOBALSTAR M050 1 25908U 99049B 25137.60984659 -.00000028 00000-0 67913-3 0 9990 2 25908 51.9973 200.7858 0008782 329.6997 197.3273 12.07454585144495 0 GLOBALSTAR M033 1 25909U 99049C 25137.55211763 -.00000009 00000-0 79013-3 0 9997 2 25909 51.9913 74.8875 0013186 198.7247 161.3117 12.20292082532009 0 GLOBALSTAR M055 1 25910U 99049D 25137.52531744 -.00000070 00000-0 21200-3 0 9993 2 25910 52.0013 87.2045 0007348 66.2461 293.9161 12.29427443164519 0 GLOBALSTAR M057 1 25943U 99058A 25137.51167314 -.00000058 00000-0 31486-3 0 9999 2 25943 51.9987 75.2585 0002736 324.2778 35.7888 12.24819468163179 0 GLOBALSTAR M059 1 25944U 99058B 25137.42724383 -.00000128 00000-0 -51827-3 0 9995 2 25944 52.0025 290.3886 0000662 164.9418 210.4051 11.99978917570357 0 GLOBALSTAR M056 1 25945U 99058C 25137.47088314 -.00000041 00000-0 53882-3 0 9994 2 25945 51.9969 293.0182 0001852 118.8533 275.2979 12.04778753158926 0 GLOBALSTAR M031 1 25946U 99058D 25137.61170028 -.00000121 00000-0 -31312-3 0 9999 2 25946 51.9942 186.7967 0001481 127.1290 39.9574 12.16036077160825 0 GLOBALSTAR M039 1 25961U 99062A 25137.36385296 -.00000110 00000-0 -34350-4 0 9992 2 25961 51.9873 2.5983 0001901 286.3621 73.7037 12.62325668176321 0 GLOBALSTAR M034 1 25962U 99062B 25137.63492677 -.00000073 00000-0 13063-3 0 9999 2 25962 51.9859 90.8025 0014470 343.8539 187.0897 11.79448110134787 0 GLOBALSTAR M029 1 25963U 99062C 25137.55298900 -.00000048 00000-0 47557-3 0 9991 2 25963 51.9778 178.1122 0002318 61.3657 106.6355 11.99896990165445 0 GLOBALSTAR M061 1 25964U 99062D 25137.53847094 -.00000024 00000-0 91598-3 0 9992 2 25964 51.9798 274.6849 0005455 261.8406 135.1303 11.76775543117576 0 GLOBALSTAR M063 1 26081U 00008A 25137.59442755 -.00000018 00000-0 94564-3 0 9995 2 26081 51.9931 192.1443 0004720 254.6600 273.1043 11.86173880153942 0 GLOBALSTAR M062 1 26082U 00008B 25137.59083426 -.00000009 00000-0 63672-3 0 9998 2 26082 51.9827 185.7584 0006919 48.1820 73.4128 12.43467202492818 0 GLOBALSTAR M060 1 26083U 00008C 25137.46684532 -.00000153 00000-0 -61973-3 0 9993 2 26083 51.9989 141.7827 0003117 61.1090 95.9067 12.17660556148627 0 GLOBALSTAR M064 1 26084U 00008D 25137.36310148 -.00000113 00000-0 -41710-3 0 9995 2 26084 52.0036 291.9430 0001275 31.6326 328.4583 11.88533816163436 0 GLOBALSTAR M065 1 31571U 07020A 25137.57089921 -.00000042 00000-0 34683-3 0 9999 2 31571 51.9904 319.4548 0009597 237.7478 163.9385 12.62007665829547 0 GLOBALSTAR M069 1 31573U 07020C 25137.44873074 -.00000068 00000-0 21770-3 0 9998 2 31573 51.9956 293.3671 0001701 120.9652 271.2914 12.39476642830349 0 GLOBALSTAR M072 1 31574U 07020D 25137.58650567 -.00000083 00000-0 81710-5 0 9993 2 31574 51.9937 73.4328 0000792 291.5305 239.6514 11.91649131827818 0 GLOBALSTAR M071 1 31576U 07020F 25137.51889247 -.00000108 00000-0 -16188-3 0 9991 2 31576 52.0073 316.7653 0001458 74.8564 319.0356 12.18254211491204 0 GLOBALSTAR M067 1 32263U 07048A 25137.41814024 -.00000088 00000-0 71963-4 0 9994 2 32263 51.9699 125.9636 0001005 287.9839 228.2214 12.40672387805667 0 GLOBALSTAR M070 1 32264U 07048B 25137.48173275 -.00000058 00000-0 25772-3 0 9991 2 32264 51.9745 222.0452 0000538 115.4807 257.9168 12.62318113809798 0 GLOBALSTAR M066 1 32265U 07048C 25137.38730715 -.00000107 00000-0 -91970-4 0 9999 2 32265 51.9622 114.6201 0001449 176.7808 349.2274 12.35103765811492 0 GLOBALSTAR M068 1 32266U 07048D 25137.46528219 -.00000078 00000-0 14157-3 0 9990 2 32266 51.9909 35.9061 0001733 66.3955 104.5916 12.62823113813676 0 GLOBALSTAR M079 1 37188U 10054A 25137.20956753 -.00000066 00000-0 21104-3 0 9996 2 37188 52.0034 234.0856 0000614 165.2403 227.8153 12.62274250672546 0 GLOBALSTAR M074 1 37189U 10054B 25137.23278042 -.00000070 00000-0 18792-3 0 9992 2 37189 52.0013 233.3438 0000350 127.7096 249.6080 12.62275086673157 0 GLOBALSTAR M076 1 37190U 10054C 25137.57483988 -.00000079 00000-0 13963-3 0 9992 2 37190 52.0025 232.4693 0000321 166.8382 206.4683 12.62262685672919 0 GLOBALSTAR M077 1 37191U 10054D 25137.59512677 -.00000090 00000-0 79337-4 0 9994 2 37191 52.0053 189.2571 0000217 147.3519 17.6041 12.62268224673281 0 GLOBALSTAR M075 1 37192U 10054E 25137.52253325 -.00000069 00000-0 19603-3 0 9995 2 37192 51.9951 274.9035 0000680 112.3534 322.6664 12.62264844671975 0 GLOBALSTAR M073 1 37193U 10054F 25137.53790010 -.00000090 00000-0 75022-4 0 9996 2 37193 52.0041 188.6541 0000200 182.3347 321.6794 12.62271574673960 0 GLOBALSTAR M083 1 37739U 11033A 25137.47671049 -.00000113 00000-0 -50000-4 0 9999 2 37739 51.9838 137.6116 0000200 109.1328 56.8205 12.62263618642977 0 GLOBALSTAR M088 1 37740U 11033B 25137.45120729 -.00000087 00000-0 91199-4 0 9996 2 37740 51.9751 43.2036 0000705 74.3201 96.9603 12.62266049638512 0 GLOBALSTAR M091 1 37741U 11033C 25137.38581626 -.00000087 00000-0 92968-4 0 9991 2 37741 52.0021 6.9060 0000934 98.1830 74.9847 12.62267907639290 0 GLOBALSTAR M085 1 37742U 11033D 25137.58163076 -.00000088 00000-0 86735-4 0 9995 2 37742 51.9876 317.3751 0000953 113.1856 290.5561 12.62268449639831 0 GLOBALSTAR M081 1 37743U 11033E 25137.52345740 -.00000077 00000-0 14715-3 0 9996 2 37743 51.9968 320.3217 0000761 116.1878 262.2742 12.62263928639978 0 GLOBALSTAR M089 1 37744U 11033F 25137.64082666 -.00000072 00000-0 17676-3 0 9999 2 37744 51.9932 274.1955 0000482 105.7999 267.5408 12.62269958640836 0 GLOBALSTAR M084 1 38040U 11080A 25137.44727630 -.00000109 00000-0 -27290-4 0 9992 2 38040 51.9979 142.0568 0000329 352.8343 159.5920 12.62266136618781 0 GLOBALSTAR M080 1 38041U 11080B 25137.30887021 -.00000105 00000-0 -86400-5 0 9994 2 38041 52.0031 144.0589 0000582 90.5697 282.6627 12.62262983618897 0 GLOBALSTAR M082 1 38042U 11080C 25137.35629517 -.00000109 00000-0 -28265-4 0 9992 2 38042 52.0062 99.3704 0000670 86.1810 72.9293 12.62266150619608 0 GLOBALSTAR M092 1 38043U 11080D 25137.56479564 -.00000096 00000-0 45713-4 0 9992 2 38043 52.0065 189.1134 0000218 122.3964 24.8271 12.62264435618085 0 GLOBALSTAR M090 1 38044U 11080E 25137.62267574 -.00000105 00000-0 -91595-5 0 9998 2 38044 51.9875 92.4060 0000413 75.8490 94.6717 12.62270205619757 0 GLOBALSTAR M086 1 38045U 11080F 25137.07486696 -.00000095 00000-0 47457-4 0 9990 2 38045 51.9886 94.6226 0000560 261.4578 178.9541 12.62270926619639 0 GLOBALSTAR M097 1 39072U 13005A 25137.63803088 -.00000087 00000-0 95292-4 0 9991 2 39072 52.0069 7.4257 0000654 98.2594 261.8347 12.62272043566953 0 GLOBALSTAR M093 1 39073U 13005B 25137.29478809 -.00000090 00000-0 75231-4 0 9998 2 39073 51.9834 1.8223 0000742 98.6879 261.4072 12.62264612566865 0 GLOBALSTAR M094 1 39074U 13005C 25137.05725882 -.00000087 00000-0 91677-4 0 9997 2 39074 51.9962 276.8966 0000817 140.7093 219.3833 12.62270824568441 0 GLOBALSTAR M096 1 39075U 13005D 25137.46644995 -.00000087 00000-0 95644-4 0 9996 2 39075 52.0088 324.1426 0000942 117.2845 242.8118 12.62271347567418 0 GLOBALSTAR M078 1 39076U 13005E 25137.43982560 .00000042 00000-0 81207-3 0 9996 2 39076 51.9891 48.7716 0001421 94.8605 265.2424 12.62263365566034 0 GLOBALSTAR M095 1 39077U 13005F 25137.46623955 -.00000086 00000-0 98424-4 0 9999 2 39077 51.9819 45.9032 0000925 102.3869 257.7101 12.62269634565896 0 GLOBALSTAR M087 1 52888U 22064A 25137.57607385 -.00000092 00000-0 65532-4 0 9991 2 52888 51.9973 186.9940 0000360 139.0740 221.0154 12.62263204141174